User: anonymous   Login
Location: Unspecified
(0.0000°N, 0.0000°E)
Time: 14:43:18
(UTC+00:00)
Language:

PAKSAT 1R - Orbit

View from above orbital plane
View from above orbital plane
View from above satellite
View from above satellite

Ground track
Ground track

The orbit data is extracted from the following two-line orbital elements,

1 37779U 11042A   17115.69630924 +.00000144 +00000-0 +00000-0 0  9994
2 37779 000.0581 070.4373 0004056 312.4238 119.6991 01.00273163020990
Epoch (UTC): 25 April 2017 16:42:41
Eccentricity: 0.0004056
inclination: 0.0581°
perigee height: 35769 km
apogee height: 35803 km
right ascension of ascending node: 70.4373°
argument of perigee: 312.4238°
revolutions per day: 1.00273163
mean anomaly at epoch: 119.6991°
orbit number at epoch: 2099

The dashed part of the orbit path shows where the satellite is in the earth's shadow,  

DLR